Regional Weather Roundup
Issued by NWS Portland, ME

Home | Current Version | Previous Version | Text Only | Print | Product List | Glossary On
Versions: 1 2 3 4 5 6 7 8 9 10 11 12 13 14 15 16 17 18 19 20 21 22 23 24 25 26 27 28 29 30 31 32 33 34 35 36 37 38 39 40 41 42 43 44 45 46 47 48 49 50
000
ASUS41 KGYX 301705
RWRGYX
WEATHER ROUNDUP FOR MAINE AND NEW HAMPSHIRE
NATIONAL WEATHER SERVICE GRAY ME
100 PM EDT SAT JUL 30 2016

MEZ002-005-006-010-012-015-018-020-021-024-026-027-029-301800-
MAINE

CITY           SKY/WX    TMP DP  RH WIND       PRES   REMARKS
PORTLAND       CLOUDY    82  51  34 VRB6      30.03S
SANFORD          N/A     79  55  43 VRB3      30.04S
BAR HARBOR     PTSUNNY   78  60  53 NE5       29.99F
WISCASSET      MOSUNNY   80  53  39 VRB3      30.03R
ROCKLAND       MOSUNNY   78  63  59 E8        30.00S
FRYEBURG       MOSUNNY   80  51  36 N5        30.04S
LEWISTONAUBURN PTSUNNY   78  53  41 NW7       30.03S
AUGUSTA        PTSUNNY   77  55  46 N8        30.03S
WATERVILLE     PTSUNNY   77  57  50 VRB6      30.00S
BANGOR         PTSUNNY   83  57  41 W5        30.00S
GREENVILLE       N/A     72  46  39 VRB7      30.03S
MILLINOCKET    PTSUNNY   77  49  37 NW7       30.01S
HOULTON        PTSUNNY   75  54  47 N8        29.98S
PRESQUE ISLE   MOSUNNY   75  52  44 W12       29.99F
FRENCHVILLE    PTSUNNY   71  54  54 NW9       29.99F
CARIBOU        CLOUDY    73  52  47 VRB7G16   29.98S
$$

NHZ002-005-008-009-011-012-014-301800-
NEW HAMPSHIRE

CITY           SKY/WX    TMP DP  RH WIND       PRES   REMARKS
PORTSMOUTH     PTSUNNY   80  58  46 W6        30.02S
ROCHESTER      CLOUDY    78  55  44 N5        30.03S
NASHUA         MOSUNNY   83  53  35 N5        30.04S
MANCHESTER     PTSUNNY   81  49  32 N8        30.03S
CONCORD        MOSUNNY   80  53  39 NW7       30.04F
LACONIA        MOSUNNY   78  51  38 NW6       30.05S
PLYMOUTH       FAIR      77  53  43 W8        30.04F
BERLIN         SUNNY     78  47  33 N8        30.07S
WHITEFIELD     SUNNY     75  51  43 E5        30.08S
JAFFREY        CLOUDY    78  52  40 VRB6      30.08S
KEENE          CLOUDY    78  55  44 VRB5      30.06S
LEBANON        MOSUNNY   80  57  45 N5        30.05F
MT WASHINGTON  PTSUNNY   54  45  71 E1          N/A
$$

VTZ005-007-008-301800-
VERMONT

CITY           SKY/WX    TMP DP  RH WIND       PRES   REMARKS
ST JOHNSBURY     N/A     76  51  41 MISG      30.05F
MONTPELIER     PTSUNNY   73  55  53 E6        30.12F
BURLINGTON     PTSUNNY   77  54  44 N8        30.07F
$$

MAZ007-012-024-CTZ003-RIZ002-NYZ038-NYZ072-301800-
SOUTHERN NEW ENGLAND AND NY

CITY           SKY/WX    TMP DP  RH WIND       PRES   REMARKS
BOSTON         MOSUNNY   77  57  50 E15       30.04S
WORCESTER      CLOUDY    78  57  48 S7        30.08R
NANTUCKET      MOSUNNY   77  70  79 MISG      30.05R
PROVIDENCE     PTSUNNY   84  65  52 S10       30.04S
HARTFORD       PTSUNNY   87  60  40 VRB3      30.03S
ALBANY         CLOUDY    76  61  59 N5        30.06S
NEW YORK CITY  PTSUNNY   80  69  69 NE9       30.01S
$$

ANZ081-ANZ082-ANZ150-NHZ014-MEZ023>029-301800-
COASTAL MARINE OBSERVATIONS

STATION/POSITION TIME  TEMP    WIND        PRES    WAVE
                       AIR SEA DIR/SP/G            HT/PER
                 (UTC) (F)     (DEG/KT/KT) (MB)    (FT/S)
MOUNT DESERT ROC 1600   65     300/  8/  8 1016.0R
MATINICUS ROCK   1600   68     360/  7/  8 1015.7R
ISLE OF SHOALS   1600   72      70/  5/  6 1016.8R
JEFFREYS LEDGE   1608      69                N/A     2/ 3
CASHES LEDGE BUO 1550   70 72  340/  8/ 10 1016.5    2/ 4
GEORGES BANK BUO 1550   66 67              1015.3    4/ 8
$$

.............KEY..............
   WCI - WIND CHILL
   TC  - TEMPERATURE IN CELSIUS
   VSB - VISIBILITY IN MILES
   HX  - HEAT INDEX
   FAIR- INDICATES FEW OR NO CLOUDS BELOW 12,000 FT, WITH NO
         SIGNIFICANT WEATHER AND/OR OBSTRUCTIONS TO VISIBILITY.





USA.gov is the U.S. government's official web portal to all federal, state and local government web resources and services.